Location: Biltmore Gardens
(41.6070°N, 83.4666°W)
Time: 14:06:19
(UTC+00:00)

Cosmos 407 Rocket - Pass Details

Date: 14 July 2020
Orbit: 743 x 786 km, 74.0° (Epoch: 04 August)

Event Time Altitude Azimuth Distance (km) Brightness Sun altitude
Exits shadow 07:36:01 41° 244° (WSW) 1,129 3.9 -21.3°
Maximum altitude 07:37:30 54° 293° (WNW) 952 3.9 -21.2°
Drops below altitude 10° 07:42:45 10° 11° (N) 2,355 7.0 -20.7°
Sets 07:45:13 0° 16° (NNE) 3,286 8.2 -20.5°
